PKDNI WIMM-WAJJ

Flight info

Callsign PKDNI
Flight time N/A
Altitude 35000
Route SALAX A576 SJ A464 IRTAD B338 AKVOM M630 JUNHA M774 OBDOS L504 OSRUT/N0459F370 W36 MIL W41 KUBIA
Aircraft A320/M-SDE3FGHIRWY/LB1

Departure

Time 2026-04-23 01:36
Airport Kualanamu International Airport (WIMM)

Arrival

Time N/A
Airport Dortheys Hiyo Eluay International Airport (WAJJ)
Time Latitude Longitude Altitude Speed Heading
2026-04-23 01:25 3.64075 98.88013 37 ft 0 kts 315°
2026-04-23 01:30 3.64073 98.88014 37 ft 1 kts 315°
2026-04-23 01:30 3.64061 98.88026 37 ft 3 kts 319°
2026-04-23 01:30 3.64045 98.88039 37 ft 3 kts 327°
2026-04-23 01:31 3.64027 98.88048 37 ft 3 kts 348°
2026-04-23 01:31 3.64011 98.88048 37 ft 2 kts 36°
2026-04-23 01:31 3.64007 98.88045 37 ft 0 kts 44°
2026-04-23 01:33 3.64008 98.88046 37 ft 1 kts 44°
2026-04-23 01:33 3.64031 98.88068 37 ft 11 kts 44°
2026-04-23 01:33 3.64132 98.88169 37 ft 16 kts 45°
2026-04-23 01:34 3.64234 98.88172 37 ft 18 kts 318°
2026-04-23 01:34 3.64335 98.88074 37 ft 22 kts 315°
2026-04-23 01:34 3.64410 98.87999 37 ft 24 kts 315°
2026-04-23 01:34 3.64480 98.87853 37 ft 25 kts 255°
2026-04-23 01:35 3.64365 98.87634 37 ft 29 kts 227°
2026-04-23 01:35 3.64268 98.87536 37 ft 32 kts 225°
2026-04-23 01:35 3.64025 98.87294 37 ft 80 kts 225°
2026-04-23 01:35 3.63465 98.86737 38 ft 144 kts 224°
2026-04-23 01:36 3.62666 98.85931 317 ft 165 kts 225°
2026-04-23 01:36 3.61831 98.85114 848 ft 171 kts 224°
2026-04-23 01:36 3.60974 98.84286 1509 ft 172 kts 224°
2026-04-23 01:36 3.60088 98.83421 1802 ft 186 kts 224°
2026-04-23 01:37 3.59126 98.82473 2077 ft 202 kts 225°
2026-04-23 01:37 3.58053 98.81457 2321 ft 222 kts 220°
2026-04-23 01:37 3.56786 98.80480 2698 ft 238 kts 213°
2026-04-23 01:37 3.55309 98.79640 3152 ft 252 kts 205°
2026-04-23 01:38 3.53649 98.78985 3665 ft 263 kts 197°
2026-04-23 01:38 3.51828 98.78538 4179 ft 273 kts 189°
2026-04-23 01:38 3.49932 98.78347 4856 ft 274 kts 181°
2026-04-23 01:38 3.48021 98.78435 5531 ft 276 kts 173°
2026-04-23 01:39 3.46134 98.78810 6156 ft 278 kts 164°
2026-04-23 01:39 3.44326 98.79455 6756 ft 281 kts 156°
2026-04-23 01:39 3.42591 98.80376 7345 ft 284 kts 147°
2026-04-23 01:39 3.40992 98.81565 7894 ft 288 kts 139°
2026-04-23 01:40 3.39580 98.83000 8441 ft 290 kts 130°
2026-04-23 01:40 3.38340 98.84603 8968 ft 293 kts 126°
2026-04-23 01:40 3.37131 98.86264 9478 ft 297 kts 126°
2026-04-23 01:40 3.35905 98.87938 9999 ft 299 kts 127°
2026-04-23 01:41 3.34646 98.89606 10476 ft 304 kts 127°
2026-04-23 01:41 3.33331 98.91317 10715 ft 316 kts 128°
2026-04-23 01:41 3.31957 98.93098 10917 ft 330 kts 128°
2026-04-23 01:41 3.30530 98.94953 11088 ft 343 kts 127°
2026-04-23 01:42 3.29054 98.96889 11247 ft 356 kts 127°
2026-04-23 01:42 3.27533 98.98892 11495 ft 365 kts 127°
2026-04-23 01:42 3.25987 99.00924 11984 ft 368 kts 127°
2026-04-23 01:42 3.24425 99.02965 12475 ft 370 kts 127°
2026-04-23 01:43 3.22867 99.04995 12946 ft 373 kts 127°
2026-04-23 01:43 3.21284 99.07064 13398 ft 376 kts 127°
2026-04-23 01:43 3.19689 99.09149 13850 ft 378 kts 127°
2026-04-23 01:43 3.18088 99.11243 14300 ft 381 kts 127°
2026-04-23 01:44 3.16470 99.13361 14730 ft 383 kts 127°
2026-04-23 01:44 3.14848 99.15484 15150 ft 386 kts 127°
2026-04-23 01:44 3.13210 99.17629 15574 ft 388 kts 127°
2026-04-23 01:44 3.11529 99.19748 15973 ft 391 kts 129°
2026-04-23 01:45 3.09740 99.21809 16370 ft 393 kts 131°
2026-04-23 01:45 3.07833 99.23787 16757 ft 396 kts 135°
2026-04-23 01:45 3.05808 99.25670 17148 ft 398 kts 138°
2026-04-23 01:45 3.03700 99.27487 17517 ft 401 kts 138°
2026-04-23 01:46 3.01585 99.29332 17884 ft 403 kts 137°
2026-04-23 01:46 2.99512 99.31227 18247 ft 405 kts 136°
2026-04-23 01:46 2.97480 99.33192 18608 ft 407 kts 134°
2026-04-23 01:46 2.95492 99.35214 18972 ft 409 kts 133°
2026-04-23 01:47 2.93534 99.37286 19322 ft 411 kts 132°
2026-04-23 01:47 2.91598 99.39399 19660 ft 413 kts 131°
2026-04-23 01:47 2.89688 99.41553 19996 ft 414 kts 130°
2026-04-23 01:47 2.87815 99.43746 20341 ft 416 kts 129°
2026-04-23 01:48 2.85977 99.45991 20664 ft 418 kts 128°
2026-04-23 01:48 2.84173 99.48288 20978 ft 420 kts 127°
2026-04-23 01:48 2.82417 99.50620 21285 ft 421 kts 126°
2026-04-23 01:48 2.80694 99.53003 21584 ft 423 kts 124°
2026-04-23 01:49 2.79012 99.55425 21873 ft 424 kts 123°
2026-04-23 01:49 2.77371 99.57888 22160 ft 426 kts 122°
2026-04-23 01:49 2.75777 99.60386 22435 ft 428 kts 121°
2026-04-23 01:49 2.74225 99.62932 22708 ft 429 kts 120°
2026-04-23 01:50 2.72721 99.65479 22972 ft 430 kts 120°
2026-04-23 01:50 2.71211 99.68064 23229 ft 432 kts 120°
2026-04-23 01:50 2.69673 99.70661 23479 ft 433 kts 120°
2026-04-23 01:50 2.68120 99.73254 23723 ft 435 kts 121°
2026-04-23 01:51 2.66560 99.75854 23957 ft 436 kts 120°
2026-04-23 01:51 2.65005 99.78460 24188 ft 438 kts 120°
2026-04-23 01:51 2.63447 99.81085 24414 ft 439 kts 120°
2026-04-23 01:51 2.61887 99.83716 24665 ft 440 kts 120°
2026-04-23 01:52 2.60323 99.86351 24906 ft 441 kts 120°
2026-04-23 01:52 2.58753 99.88991 25129 ft 442 kts 120°
2026-04-23 01:52 2.57180 99.91632 25342 ft 443 kts 120°
2026-04-23 01:52 2.55599 99.94287 25554 ft 445 kts 121°
2026-04-23 01:53 2.54009 99.96956 25760 ft 446 kts 120°
2026-04-23 01:53 2.52443 99.99589 25981 ft 447 kts 120°
2026-04-23 01:53 2.50856 100.02260 26192 ft 448 kts 121°
2026-04-23 01:53 2.49262 100.04943 26393 ft 449 kts 121°
2026-04-23 01:54 2.47661 100.07632 26593 ft 450 kts 121°
2026-04-23 01:54 2.46055 100.10330 26783 ft 452 kts 121°
2026-04-23 01:54 2.44444 100.13034 26972 ft 453 kts 121°
2026-04-23 01:54 2.42830 100.15748 27161 ft 454 kts 121°
2026-04-23 01:55 2.41212 100.18469 27342 ft 456 kts 121°
2026-04-23 01:55 2.39584 100.21204 27527 ft 457 kts 121°
2026-04-23 01:55 2.37954 100.23940 27707 ft 458 kts 121°
2026-04-23 01:55 2.36323 100.26677 27886 ft 460 kts 121°
2026-04-23 01:56 2.34684 100.29429 28063 ft 461 kts 121°
2026-04-23 01:56 2.33043 100.32187 28265 ft 462 kts 121°
2026-04-23 01:56 2.31420 100.34914 28442 ft 463 kts 121°
2026-04-23 01:56 2.29771 100.37685 28612 ft 464 kts 121°
2026-04-23 01:57 2.28118 100.40463 28781 ft 465 kts 121°
2026-04-23 01:57 2.26455 100.43254 28946 ft 467 kts 121°
2026-04-23 01:57 2.24791 100.46046 29106 ft 468 kts 121°
2026-04-23 01:57 2.23123 100.48846 29273 ft 469 kts 121°
2026-04-23 01:58 2.21453 100.51651 29457 ft 469 kts 121°
2026-04-23 01:58 2.19781 100.54460 29647 ft 470 kts 121°
2026-04-23 01:58 2.18108 100.57268 29850 ft 470 kts 121°
2026-04-23 01:58 2.16444 100.60062 30050 ft 470 kts 121°
2026-04-23 01:59 2.14766 100.62878 30247 ft 470 kts 121°
2026-04-23 01:59 2.13090 100.65691 30448 ft 470 kts 121°
2026-04-23 01:59 2.11418 100.68498 30642 ft 469 kts 121°
2026-04-23 01:59 2.09745 100.71306 30832 ft 470 kts 121°
2026-04-23 02:00 2.08073 100.74112 31022 ft 469 kts 121°
2026-04-23 02:00 2.06401 100.76918 31215 ft 469 kts 121°
2026-04-23 02:00 2.04751 100.79686 31400 ft 469 kts 121°
2026-04-23 02:00 2.03079 100.82491 31584 ft 469 kts 121°
2026-04-23 02:01 2.01408 100.85295 31774 ft 469 kts 121°
2026-04-23 02:01 1.99737 100.88101 31953 ft 469 kts 121°
2026-04-23 02:01 1.98067 100.90904 32127 ft 469 kts 121°
2026-04-23 02:01 1.96388 100.93717 32288 ft 470 kts 121°
2026-04-23 02:02 1.94714 100.96523 32467 ft 470 kts 121°
2026-04-23 02:02 1.93042 100.99331 32632 ft 470 kts 121°
2026-04-23 02:02 1.91369 101.02138 32790 ft 470 kts 121°
2026-04-23 02:02 1.89697 101.04945 32948 ft 470 kts 121°
2026-04-23 02:03 1.88044 101.07717 33068 ft 471 kts 121°
2026-04-23 02:03 1.86370 101.10528 33233 ft 470 kts 121°
2026-04-23 02:03 1.84694 101.13339 33383 ft 470 kts 121°
2026-04-23 02:03 1.83022 101.16142 33530 ft 470 kts 121°
2026-04-23 02:04 1.81345 101.18950 33671 ft 470 kts 121°
2026-04-23 02:04 1.79665 101.21758 33810 ft 470 kts 121°
2026-04-23 02:04 1.77984 101.24564 33940 ft 470 kts 121°
2026-04-23 02:04 1.76307 101.27365 34065 ft 470 kts 121°
2026-04-23 02:05 1.74623 101.30173 34184 ft 471 kts 121°
2026-04-23 02:05 1.72937 101.32978 34339 ft 470 kts 121°
2026-04-23 02:05 1.71254 101.35778 34497 ft 469 kts 121°
2026-04-23 02:05 1.69572 101.38576 34628 ft 469 kts 121°
2026-04-23 02:06 1.67894 101.41367 34758 ft 469 kts 121°
2026-04-23 02:06 1.66213 101.44164 34881 ft 469 kts 121°
2026-04-23 02:06 1.62858 101.49748 34894 ft 468 kts 121°
2026-04-23 02:07 1.59507 101.55322 34894 ft 468 kts 121°
2026-04-23 02:07 1.56155 101.60896 34881 ft 468 kts 121°
2026-04-23 02:08 1.52799 101.66477 34875 ft 468 kts 121°
2026-04-23 02:08 1.49469 101.72011 34871 ft 468 kts 121°
2026-04-23 02:09 1.46103 101.77604 34859 ft 468 kts 121°
2026-04-23 02:09 1.42748 101.83177 34843 ft 468 kts 121°
2026-04-23 02:10 1.39392 101.88749 34835 ft 468 kts 121°
2026-04-23 02:10 1.36033 101.94323 34828 ft 468 kts 121°
2026-04-23 02:11 1.32671 101.99896 34823 ft 468 kts 121°
2026-04-23 02:11 1.29314 102.05468 34838 ft 467 kts 121°
2026-04-23 02:12 1.25989 102.10999 34895 ft 466 kts 121°
2026-04-23 02:12 1.22658 102.16543 34914 ft 465 kts 121°
2026-04-23 02:13 1.19325 102.22092 34912 ft 465 kts 121°
2026-04-23 02:13 1.16003 102.27625 34912 ft 464 kts 121°
2026-04-23 02:14 1.12678 102.33165 34910 ft 463 kts 121°
2026-04-23 02:14 1.09364 102.38689 34898 ft 463 kts 121°
2026-04-23 02:15 1.04396 102.46971 34846 ft 463 kts 121°
2026-04-23 02:16 1.01099 102.52464 34830 ft 463 kts 121°
2026-04-23 02:16 0.97793 102.57978 34830 ft 462 kts 121°
2026-04-23 02:17 0.94491 102.63485 34828 ft 462 kts 121°
2026-04-23 02:17 0.91192 102.68993 34831 ft 462 kts 121°
2026-04-23 02:18 0.87896 102.74501 34828 ft 462 kts 121°
2026-04-23 02:18 0.85155 102.79081 34824 ft 461 kts 121°
2026-04-23 02:19 0.82823 102.82982 34857 ft 460 kts 121°
2026-04-23 02:19 0.79540 102.88478 34847 ft 460 kts 121°
2026-04-23 02:20 0.75724 102.94868 34828 ft 460 kts 121°
2026-04-23 02:20 0.72980 102.99468 34856 ft 460 kts 121°
2026-04-23 02:21 0.69730 103.04924 34838 ft 460 kts 121°
2026-04-23 02:21 0.66457 103.10419 34828 ft 460 kts 121°
2026-04-23 02:22 0.63183 103.15919 34831 ft 459 kts 121°
2026-04-23 02:22 0.59919 103.21404 34846 ft 460 kts 121°
2026-04-23 02:23 0.56646 103.26907 34846 ft 460 kts 121°
2026-04-23 02:23 0.53376 103.32408 34859 ft 460 kts 121°
2026-04-23 02:24 0.50132 103.37874 34899 ft 459 kts 121°
2026-04-23 02:24 0.46875 103.43367 34900 ft 459 kts 121°
2026-04-23 02:25 0.43619 103.48864 34895 ft 459 kts 121°
2026-04-23 02:25 0.40369 103.54356 34895 ft 459 kts 121°
2026-04-23 02:26 0.37127 103.59847 34927 ft 458 kts 121°
2026-04-23 02:26 0.33887 103.65338 34893 ft 459 kts 121°
2026-04-23 02:27 0.30649 103.70827 34860 ft 459 kts 121°
2026-04-23 02:27 0.27430 103.76287 34850 ft 459 kts 121°
2026-04-23 02:28 0.24194 103.81787 34849 ft 458 kts 121°
2026-04-23 02:28 0.20966 103.87277 34852 ft 458 kts 121°
2026-04-23 02:29 0.18665 103.91192 34851 ft 458 kts 121°
2026-04-23 02:29 0.15522 103.96541 34858 ft 458 kts 121°
2026-04-23 02:30 0.12311 104.02005 34853 ft 458 kts 121°
2026-04-23 02:30 0.09079 104.07505 34861 ft 458 kts 121°
2026-04-23 02:31 0.05849 104.13000 34855 ft 458 kts 121°
2026-04-23 02:31 0.02624 104.18486 34858 ft 458 kts 121°
2026-04-23 02:32 -0.00614 104.23991 34862 ft 458 kts 121°
2026-04-23 02:32 -0.03845 104.29484 34858 ft 458 kts 121°
2026-04-23 02:33 -0.07085 104.34979 34855 ft 459 kts 121°
2026-04-23 02:33 -0.10304 104.40435 34869 ft 459 kts 121°
2026-04-23 02:34 -0.13547 104.45929 34874 ft 459 kts 121°
2026-04-23 02:34 -0.16805 104.51437 34860 ft 460 kts 121°
2026-04-23 02:35 -0.20064 104.56942 34856 ft 460 kts 121°
2026-04-23 02:35 -0.23327 104.62443 34852 ft 461 kts 121°
2026-04-23 02:36 -0.26598 104.67953 34858 ft 461 kts 121°
2026-04-23 02:36 -0.29869 104.73457 34871 ft 461 kts 121°
2026-04-23 02:37 -0.33153 104.78973 34860 ft 462 kts 121°
2026-04-23 02:37 -0.36440 104.84486 34874 ft 461 kts 121°
2026-04-23 02:38 -0.39706 104.89963 34871 ft 461 kts 121°
2026-04-23 02:38 -0.43019 104.95508 34855 ft 462 kts 121°
2026-04-23 02:39 -0.45633 104.99878 34857 ft 462 kts 121°
2026-04-23 02:39 -0.48739 105.05067 34865 ft 462 kts 121°
2026-04-23 02:40 -0.52019 105.10548 34863 ft 462 kts 121°
2026-04-23 02:40 -0.55324 105.16067 34857 ft 463 kts 121°
2026-04-23 02:41 -0.58633 105.21581 34850 ft 463 kts 121°
2026-04-23 02:41 -0.61950 105.27103 34853 ft 463 kts 121°
2026-04-23 02:42 -0.65268 105.32626 34861 ft 463 kts 121°
2026-04-23 02:42 -0.68586 105.38148 34856 ft 463 kts 121°
2026-04-23 02:43 -0.71906 105.43669 34855 ft 463 kts 121°
2026-04-23 02:43 -0.75223 105.49188 34851 ft 463 kts 121°
2026-04-23 02:44 -0.78544 105.54708 34851 ft 463 kts 121°
2026-04-23 02:44 -0.81870 105.60229 34847 ft 464 kts 121°
2026-04-23 02:45 -0.85180 105.65717 34853 ft 464 kts 121°
2026-04-23 02:45 -0.88516 105.71244 34864 ft 464 kts 121°
2026-04-23 02:46 -0.91855 105.76776 34867 ft 464 kts 121°
2026-04-23 02:46 -0.95191 105.82305 34860 ft 464 kts 121°
2026-04-23 02:47 -0.98504 105.87798 34854 ft 464 kts 121°
2026-04-23 02:47 -1.01842 105.93322 34849 ft 465 kts 121°
2026-04-23 02:48 -1.05193 105.98863 34849 ft 465 kts 121°
2026-04-23 02:48 -1.08544 106.04398 34870 ft 465 kts 121°
2026-04-23 02:49 -1.11514 106.09292 34880 ft 465 kts 121°
2026-04-23 02:49 -1.14448 106.14122 34877 ft 465 kts 121°
2026-04-23 02:50 -1.17808 106.19654 34871 ft 465 kts 121°
2026-04-23 02:50 -1.21143 106.25143 34864 ft 465 kts 121°
2026-04-23 02:51 -1.24523 106.30707 34856 ft 465 kts 121°
2026-04-23 02:51 -1.27855 106.36192 34852 ft 465 kts 121°
2026-04-23 02:52 -1.31214 106.41717 34848 ft 465 kts 121°
2026-04-23 02:52 -1.34573 106.47242 34848 ft 465 kts 121°
2026-04-23 02:53 -1.37928 106.52759 34847 ft 465 kts 121°
2026-04-23 02:53 -1.41289 106.58283 34851 ft 465 kts 122°
2026-04-23 02:54 -1.44650 106.63807 34848 ft 465 kts 121°
2026-04-23 02:54 -1.48012 106.69331 34848 ft 465 kts 121°
2026-04-23 02:55 -1.51374 106.74853 34847 ft 465 kts 122°
2026-04-23 02:55 -1.54735 106.80366 34848 ft 465 kts 122°
2026-04-23 02:56 -1.58100 106.85885 34845 ft 465 kts 122°
2026-04-23 02:56 -1.61261 106.91068 34864 ft 464 kts 122°
2026-04-23 02:57 -1.64630 106.96589 34862 ft 464 kts 122°
2026-04-23 02:57 -1.67992 107.02099 34914 ft 463 kts 122°
2026-04-23 02:58 -1.71323 107.07556 34932 ft 463 kts 122°
2026-04-23 02:58 -1.74678 107.13050 34928 ft 463 kts 122°
2026-04-23 02:59 -1.77579 107.17798 34921 ft 463 kts 122°
2026-04-23 02:59 -1.80190 107.22068 34909 ft 463 kts 122°
2026-04-23 03:00 -1.83547 107.27559 34890 ft 463 kts 122°
2026-04-23 03:00 -1.86910 107.33056 34869 ft 463 kts 122°
2026-04-23 03:01 -1.90278 107.38557 34861 ft 463 kts 122°
2026-04-23 03:01 -1.93617 107.44013 34884 ft 462 kts 122°
2026-04-23 03:02 -1.96970 107.49489 34862 ft 462 kts 122°
2026-04-23 03:02 -2.00327 107.54971 34863 ft 462 kts 122°
2026-04-23 03:03 -2.03686 107.60452 34861 ft 462 kts 122°
2026-04-23 03:03 -2.07050 107.65938 34860 ft 463 kts 122°
2026-04-23 03:04 -2.09847 107.70498 34863 ft 463 kts 122°
2026-04-23 03:04 -2.13212 107.75989 34907 ft 462 kts 122°
2026-04-23 03:05 -2.16576 107.81476 34952 ft 462 kts 122°
2026-04-23 03:05 -2.19934 107.86952 34953 ft 462 kts 122°
2026-04-23 03:06 -2.23292 107.92428 34951 ft 462 kts 122°
2026-04-23 03:06 -2.26653 107.97906 34948 ft 462 kts 122°
2026-04-23 03:07 -2.30009 108.03376 34924 ft 462 kts 122°
2026-04-23 03:07 -2.33372 108.08851 34892 ft 462 kts 122°
2026-04-23 03:08 -2.36734 108.14321 34867 ft 462 kts 122°
2026-04-23 03:08 -2.40079 108.19757 34861 ft 462 kts 122°
2026-04-23 03:09 -2.43451 108.25233 34860 ft 462 kts 122°
2026-04-23 03:09 -2.45772 108.29001 34862 ft 462 kts 122°
2026-04-23 03:10 -2.49153 108.34483 34860 ft 463 kts 122°
2026-04-23 03:10 -2.52537 108.39964 34876 ft 463 kts 122°
2026-04-23 03:11 -2.55898 108.45401 34890 ft 463 kts 122°
2026-04-23 03:11 -2.59288 108.50877 34892 ft 463 kts 122°
2026-04-23 03:12 -2.62684 108.56358 34890 ft 463 kts 122°
2026-04-23 03:12 -2.66083 108.61837 34885 ft 463 kts 122°
2026-04-23 03:13 -2.69479 108.67301 34878 ft 463 kts 122°
2026-04-23 03:13 -2.72864 108.72741 34871 ft 463 kts 122°
2026-04-23 03:14 -2.76273 108.78211 34852 ft 463 kts 122°
2026-04-23 03:14 -2.79689 108.83688 34856 ft 464 kts 122°
2026-04-23 03:15 -2.83111 108.89169 34860 ft 464 kts 122°
2026-04-23 03:15 -2.86537 108.94649 34870 ft 464 kts 122°
2026-04-23 03:16 -2.89941 109.00088 34871 ft 464 kts 122°
2026-04-23 03:16 -2.95087 109.08290 34914 ft 463 kts 122°
2026-04-23 03:17 -2.98520 109.13751 34890 ft 463 kts 122°
2026-04-23 03:17 -3.01956 109.19210 34877 ft 463 kts 122°
2026-04-23 03:18 -3.05396 109.24670 34865 ft 464 kts 122°
2026-04-23 03:18 -3.08819 109.30090 34893 ft 463 kts 122°
2026-04-23 03:19 -3.11043 109.33604 34886 ft 463 kts 122°
2026-04-23 03:19 -3.14448 109.38975 34856 ft 463 kts 122°
2026-04-23 03:20 -3.17905 109.44419 34857 ft 463 kts 122°
2026-04-23 03:20 -3.21367 109.49865 34857 ft 463 kts 122°
2026-04-23 03:21 -3.24828 109.55304 34854 ft 463 kts 122°
2026-04-23 03:21 -3.28296 109.60737 34887 ft 463 kts 122°
2026-04-23 03:22 -3.31769 109.66169 34889 ft 463 kts 122°
2026-04-23 03:22 -3.35226 109.71558 34923 ft 462 kts 122°
2026-04-23 03:23 -3.38713 109.76983 34909 ft 463 kts 122°
2026-04-23 03:23 -3.42205 109.82398 34925 ft 462 kts 122°
2026-04-23 03:24 -3.45695 109.87805 34906 ft 462 kts 122°
2026-04-23 03:24 -3.49192 109.93212 34865 ft 463 kts 122°
2026-04-23 03:25 -3.52695 109.98619 34853 ft 463 kts 122°
2026-04-23 03:25 -3.56202 110.04021 34851 ft 463 kts 122°
2026-04-23 03:26 -3.59670 110.09404 34845 ft 464 kts 122°
2026-04-23 03:26 -3.63116 110.14878 34840 ft 466 kts 122°
2026-04-23 03:27 -3.66564 110.20387 34842 ft 467 kts 122°
2026-04-23 03:27 -3.70023 110.25916 34844 ft 469 kts 122°
2026-04-23 03:28 -3.73495 110.31468 34845 ft 470 kts 122°
2026-04-23 03:28 -3.76963 110.37012 34899 ft 470 kts 122°
2026-04-23 03:29 -3.79486 110.41043 34941 ft 469 kts 122°
2026-04-23 03:29 -3.82553 110.45937 34938 ft 469 kts 122°
2026-04-23 03:30 -3.86000 110.51436 34937 ft 468 kts 122°
2026-04-23 03:30 -3.89460 110.56959 34937 ft 468 kts 122°
2026-04-23 03:31 -3.92924 110.62483 34939 ft 468 kts 122°
2026-04-23 03:31 -3.96389 110.67994 34929 ft 468 kts 122°
2026-04-23 03:32 -3.99862 110.73514 34912 ft 467 kts 122°
2026-04-23 03:32 -4.03323 110.79022 34890 ft 467 kts 122°
2026-04-23 03:33 -4.06791 110.84535 34859 ft 467 kts 122°
2026-04-23 03:33 -4.10258 110.90044 34872 ft 466 kts 122°
2026-04-23 03:34 -4.13699 110.95507 34849 ft 467 kts 122°
2026-04-23 03:34 -4.17164 111.01009 34852 ft 467 kts 122°
2026-04-23 03:35 -4.20630 111.06507 34872 ft 466 kts 122°
2026-04-23 03:35 -4.24096 111.11996 34874 ft 466 kts 122°
2026-04-23 03:36 -4.27559 111.17477 34889 ft 465 kts 122°
2026-04-23 03:36 -4.31024 111.22952 34889 ft 465 kts 122°
2026-04-23 03:37 -4.34471 111.28398 34877 ft 465 kts 122°
2026-04-23 03:37 -4.37939 111.33864 34910 ft 464 kts 122°
2026-04-23 03:38 -4.41405 111.39324 34885 ft 464 kts 122°
2026-04-23 03:38 -4.44879 111.44794 34858 ft 464 kts 122°
2026-04-23 03:39 -4.47612 111.49098 34850 ft 464 kts 122°
2026-04-23 03:39 -4.50380 111.53449 34880 ft 463 kts 122°
2026-04-23 03:40 -4.53824 111.58858 34881 ft 463 kts 122°
2026-04-23 03:40 -4.57312 111.64342 34851 ft 464 kts 122°
2026-04-23 03:41 -4.60759 111.69766 34854 ft 464 kts 122°
2026-04-23 03:41 -4.64234 111.75228 34874 ft 464 kts 122°
2026-04-23 03:42 -4.67704 111.80685 34879 ft 464 kts 122°
2026-04-23 03:42 -4.71176 111.86142 34911 ft 463 kts 122°
2026-04-23 03:43 -4.74644 111.91591 34917 ft 463 kts 122°
2026-04-23 03:43 -4.78109 111.97036 34908 ft 463 kts 122°
2026-04-23 03:44 -4.81554 112.02450 34894 ft 463 kts 122°
2026-04-23 03:44 -4.84944 112.07775 34875 ft 464 kts 122°
2026-04-23 03:45 -4.88412 112.13222 34869 ft 464 kts 122°
2026-04-23 03:45 -4.91883 112.18675 34865 ft 464 kts 122°
2026-04-23 03:46 -4.95353 112.24128 34864 ft 463 kts 122°
2026-04-23 03:46 -4.98818 112.29576 34863 ft 463 kts 122°
2026-04-23 03:47 -5.02289 112.35036 34857 ft 463 kts 122°
2026-04-23 03:47 -5.05733 112.40454 34851 ft 463 kts 122°
2026-04-23 03:48 -5.09196 112.45903 34853 ft 463 kts 122°
2026-04-23 03:48 -5.12098 112.50469 34852 ft 463 kts 122°
2026-04-23 03:49 -5.15562 112.55922 34854 ft 463 kts 122°
2026-04-23 03:49 -5.17467 112.58921 34856 ft 463 kts 122°
2026-04-23 03:50 -5.20929 112.64371 34853 ft 463 kts 122°
2026-04-23 03:50 -5.24371 112.69791 34853 ft 463 kts 122°
2026-04-23 03:51 -5.27836 112.75246 34853 ft 463 kts 122°
2026-04-23 03:51 -5.31298 112.80696 34853 ft 463 kts 122°
2026-04-23 03:52 -5.34764 112.86153 34857 ft 463 kts 122°
2026-04-23 03:52 -5.38229 112.91608 34867 ft 463 kts 122°
2026-04-23 03:53 -5.41694 112.97064 34858 ft 463 kts 122°
2026-04-23 03:53 -5.45159 113.02513 34875 ft 463 kts 122°
2026-04-23 03:54 -5.48622 113.07949 34919 ft 462 kts 122°
2026-04-23 03:54 -5.52086 113.13389 34908 ft 462 kts 122°
2026-04-23 03:55 -5.55551 113.18828 34902 ft 462 kts 122°
2026-04-23 03:55 -5.59017 113.24266 34897 ft 462 kts 122°
2026-04-23 03:56 -5.62486 113.29699 34937 ft 461 kts 122°
2026-04-23 03:56 -5.65951 113.35120 34917 ft 461 kts 122°
2026-04-23 03:57 -5.69398 113.40512 34904 ft 461 kts 122°
2026-04-23 03:57 -5.72867 113.45934 34917 ft 461 kts 122°
2026-04-23 03:58 -5.76335 113.51344 34923 ft 460 kts 122°
2026-04-23 03:58 -5.79803 113.56752 34891 ft 461 kts 122°
2026-04-23 03:59 -5.83273 113.62166 34873 ft 461 kts 122°
2026-04-23 03:59 -5.85260 113.65265 34866 ft 461 kts 122°
2026-04-23 04:00 -5.88731 113.70672 34891 ft 460 kts 122°
2026-04-23 04:00 -5.92202 113.76070 34898 ft 460 kts 122°
2026-04-23 04:01 -5.95677 113.81472 34894 ft 460 kts 122°
2026-04-23 04:01 -5.99124 113.86830 34883 ft 460 kts 122°
2026-04-23 04:02 -6.02597 113.92230 34884 ft 460 kts 122°
2026-04-23 04:02 -6.06069 113.97627 34879 ft 460 kts 122°
2026-04-23 04:03 -6.09542 114.03026 34879 ft 460 kts 122°
2026-04-23 04:03 -6.13014 114.08424 34882 ft 460 kts 122°
2026-04-23 04:04 -6.16488 114.13824 34884 ft 460 kts 122°
2026-04-23 04:04 -6.19959 114.19220 34889 ft 460 kts 122°
2026-04-23 04:05 -6.23432 114.24618 34890 ft 460 kts 122°
2026-04-23 04:05 -6.26884 114.29985 34886 ft 460 kts 122°
2026-04-23 04:06 -6.30354 114.35389 34846 ft 461 kts 122°
2026-04-23 04:06 -6.33833 114.40810 34856 ft 461 kts 122°
2026-04-23 04:07 -6.37310 114.46227 34866 ft 461 kts 122°
2026-04-23 04:07 -6.40784 114.51644 34878 ft 461 kts 122°
2026-04-23 04:08 -6.44256 114.57059 34881 ft 460 kts 122°
2026-04-23 04:08 -6.47727 114.62479 34849 ft 461 kts 122°
2026-04-23 04:09 -6.51203 114.67916 34853 ft 461 kts 122°
2026-04-23 04:09 -6.53127 114.70927 34862 ft 461 kts 122°
2026-04-23 04:10 -6.56596 114.76353 34871 ft 461 kts 122°
2026-04-23 04:10 -6.60066 114.81784 34882 ft 461 kts 122°
2026-04-23 04:11 -6.63534 114.87215 34890 ft 461 kts 122°
2026-04-23 04:11 -6.67001 114.92644 34903 ft 461 kts 122°
2026-04-23 04:12 -6.70468 114.98076 34913 ft 461 kts 122°
2026-04-23 04:12 -6.73935 115.03508 34920 ft 461 kts 122°
2026-04-23 04:13 -6.77399 115.08938 34930 ft 461 kts 122°
2026-04-23 04:13 -6.80839 115.14335 34931 ft 461 kts 122°
2026-04-23 04:14 -6.84300 115.19767 34931 ft 461 kts 122°
2026-04-23 04:14 -6.87759 115.25205 34893 ft 461 kts 122°
2026-04-23 04:15 -6.91221 115.30651 34855 ft 462 kts 122°
2026-04-23 04:16 -6.96410 115.38819 34852 ft 461 kts 122°
2026-04-23 04:16 -6.99870 115.44267 34853 ft 462 kts 122°
2026-04-23 04:17 -7.03330 115.49717 34861 ft 462 kts 122°
2026-04-23 04:17 -7.06788 115.55167 34880 ft 461 kts 122°
2026-04-23 04:18 -7.10227 115.60592 34892 ft 461 kts 122°
2026-04-23 04:18 -7.13678 115.66039 34900 ft 461 kts 122°
2026-04-23 04:19 -7.17133 115.71499 34910 ft 461 kts 122°
2026-04-23 04:19 -7.19494 115.75231 34915 ft 461 kts 122°
2026-04-23 04:20 -7.22145 115.79425 34924 ft 461 kts 122°
2026-04-23 04:20 -7.25594 115.84885 34931 ft 461 kts 122°
2026-04-23 04:21 -7.29035 115.90338 34931 ft 461 kts 122°
2026-04-23 04:21 -7.32477 115.95795 34931 ft 461 kts 122°
2026-04-23 04:22 -7.35919 116.01254 34933 ft 461 kts 122°
2026-04-23 04:22 -7.39331 116.06666 34941 ft 460 kts 122°
2026-04-23 04:23 -7.42761 116.12106 34923 ft 460 kts 122°
2026-04-23 04:23 -7.46190 116.17545 34882 ft 459 kts 122°
2026-04-23 04:24 -7.49617 116.22983 34849 ft 460 kts 122°
2026-04-23 04:24 -7.53045 116.28421 34857 ft 460 kts 122°
2026-04-23 04:25 -7.56482 116.33874 34864 ft 460 kts 122°
2026-04-23 04:25 -7.59893 116.39287 34888 ft 460 kts 122°
2026-04-23 04:26 -7.63334 116.44747 34902 ft 460 kts 122°
2026-04-23 04:26 -7.66771 116.50196 34911 ft 460 kts 122°
2026-04-23 04:27 -7.70212 116.55651 34919 ft 460 kts 122°
2026-04-23 04:27 -7.73625 116.61060 34921 ft 460 kts 122°
2026-04-23 04:28 -7.78787 116.69236 34923 ft 460 kts 122°
2026-04-23 04:28 -7.82237 116.74694 34905 ft 460 kts 122°
2026-04-23 04:29 -7.85682 116.80143 34893 ft 460 kts 122°
2026-04-23 04:29 -7.87602 116.83178 34885 ft 460 kts 122°
2026-04-23 04:30 -7.91030 116.88586 34913 ft 459 kts 122°
2026-04-23 04:30 -7.94473 116.94009 34903 ft 459 kts 122°
2026-04-23 04:31 -7.97919 116.99432 34861 ft 459 kts 122°
2026-04-23 04:31 -8.01370 117.04855 34834 ft 459 kts 122°
2026-04-23 04:32 -8.04832 117.10285 34831 ft 460 kts 122°
2026-04-23 04:32 -8.08298 117.15717 34833 ft 461 kts 122°
2026-04-23 04:33 -8.11778 117.21164 34854 ft 461 kts 122°
2026-04-23 04:33 -8.15261 117.26613 34896 ft 461 kts 122°
2026-04-23 04:34 -8.18715 117.32014 34917 ft 461 kts 122°
2026-04-23 04:34 -8.22199 117.37461 34920 ft 462 kts 122°
2026-04-23 04:35 -8.25098 117.41990 34920 ft 462 kts 122°
2026-04-23 04:35 -8.28587 117.47431 34920 ft 461 kts 122°
2026-04-23 04:36 -8.32067 117.52853 34906 ft 459 kts 122°
2026-04-23 04:36 -8.35525 117.58239 34866 ft 459 kts 122°
2026-04-23 04:37 -8.39001 117.63645 34830 ft 459 kts 122°
2026-04-23 04:37 -8.42479 117.69055 34832 ft 459 kts 122°
2026-04-23 04:38 -8.45957 117.74463 34834 ft 460 kts 122°
2026-04-23 04:38 -8.49451 117.79898 34834 ft 461 kts 122°
2026-04-23 04:39 -8.52944 117.85331 34874 ft 461 kts 122°
2026-04-23 04:39 -8.54764 117.88161 34900 ft 461 kts 122°
2026-04-23 04:40 -8.58238 117.93562 34919 ft 461 kts 122°
2026-04-23 04:40 -8.61734 117.98999 34919 ft 461 kts 122°
2026-04-23 04:41 -8.65226 118.04435 34920 ft 461 kts 122°
2026-04-23 04:41 -8.68718 118.09866 34905 ft 461 kts 122°
2026-04-23 04:42 -8.72209 118.15300 34863 ft 461 kts 122°
2026-04-23 04:42 -8.75704 118.20744 34832 ft 462 kts 122°
2026-04-23 04:43 -8.79200 118.26189 34839 ft 462 kts 122°
2026-04-23 04:43 -8.82702 118.31643 34854 ft 462 kts 122°
2026-04-23 04:44 -8.86178 118.37057 34876 ft 462 kts 122°
2026-04-23 04:44 -8.89681 118.42512 34895 ft 462 kts 122°
2026-04-23 04:45 -8.93182 118.47974 34871 ft 463 kts 122°
2026-04-23 04:45 -8.96684 118.53442 34860 ft 463 kts 122°
2026-04-23 04:46 -9.00167 118.58878 34859 ft 463 kts 122°
2026-04-23 04:46 -9.03671 118.64345 34866 ft 463 kts 122°
2026-04-23 04:47 -9.07176 118.69814 34871 ft 463 kts 122°
2026-04-23 04:47 -9.10680 118.75280 34877 ft 463 kts 122°
2026-04-23 04:48 -9.14187 118.80750 34882 ft 463 kts 122°
2026-04-23 04:48 -9.17698 118.86223 34881 ft 463 kts 122°
2026-04-23 04:49 -9.21209 118.91696 34890 ft 463 kts 122°
2026-04-23 04:49 -9.23046 118.94560 34894 ft 463 kts 122°
2026-04-23 04:50 -9.26091 118.99306 34903 ft 463 kts 122°
2026-04-23 04:50 -9.29600 119.04776 34897 ft 463 kts 122°
2026-04-23 04:51 -9.33107 119.10242 34873 ft 463 kts 122°
2026-04-23 04:51 -9.36623 119.15717 34860 ft 463 kts 122°
2026-04-23 04:52 -9.40136 119.21186 34847 ft 464 kts 122°
2026-04-23 04:52 -9.43655 119.26661 34843 ft 464 kts 122°
2026-04-23 04:53 -9.47154 119.32102 34837 ft 464 kts 122°
2026-04-23 04:53 -9.50678 119.37573 34871 ft 463 kts 122°
2026-04-23 04:54 -9.54205 119.43037 34876 ft 463 kts 122°
2026-04-23 04:54 -9.57737 119.48504 34861 ft 464 kts 122°
2026-04-23 04:55 -9.61272 119.53970 34855 ft 464 kts 122°
2026-04-23 04:55 -9.64811 119.59437 34850 ft 464 kts 122°
2026-04-23 04:56 -9.68355 119.64896 34889 ft 463 kts 122°
2026-04-23 04:56 -9.70102 119.67582 34876 ft 449 kts 122°
2026-04-23 04:56 -9.71773 119.70189 34869 ft 432 kts 119°
2026-04-23 04:57 -9.73029 119.72851 34861 ft 415 kts 108°